Lid_Strength_Index
19 18 17 17 17 19 19 19 19 19 19 16 15 15 14 14 14 15 14 14 13 13 13 13 13 13 13 13 13 13 13 13 14 14 15 12 15 16 14 15 15 14 14
21 20 19 18 19 21 21 20 20 20 18 15 15 15 15 15 14 15 15 14 15 14 13 13 13 13 13 13 13 14 13 13 14 15 14 13 16 16 15 17 14 13 15
22 22 21 21 20 21 21 20 19 19 19 15 15 15 15 15 15 15 14 14 13 13 13 13 13 14 14 14 14 14 13 13 13 14 15 14 17 17 17 16 15 15 14
23 23 23 23 22 21 20 20 19 19 20 18 15 15 15 14 14 15 14 14 14 13 13 13 14 15 17 17 16 14 14 15 15 15 16 16 17 16 17 17 17 16 14
24 25 25 24 23 23 23 23 21 20 20 20 19 19 15 14 14 14 14 14 14 14 14 14 14 14 14 14 15 15 15 15 15 15 16 16 16 16 17 17 17 17 16
25 26 25 24 24 24 23 23 22 22 22 21 16 16 16 15 13 12 13 14 14 14 15 15 15 15 14 12 12 11 13 15 15 15 15 15 15 15 16 17 19 20 19
23 22 22 22 21 21 21 20 22 22 21 21 21 20 16 15 13 12 12 13 14 14 15 15 15 14 16 15 13 11 11 11 11 14 14 14 15 14 15 18 19 20 19
21 20 20 20 20 20 20 21 21 19 16 16 16 17 17 16 13 13 12 13 14 14 14 15 16 15 15 15 15 15 14 13 12 12 13 13 13 14 15 16 17 19 19
20 21 20 20 20 20 20 21 20 19 18 17 15 15 15 15 13 12 12 13 13 14 13 14 14 14 13 12 14 15 15 14 12 11 10 10 10 10 11 16 21 17 17
20 20 19 19 20 21 20 19 18 18 17 16 16 16 16 15 14 13 13 13 14 14 13 13 13 13 12 12 13 14 15 14 14 16 15 12 11 12 10 13 16 17 17
20 19 19 19 20 19 19 19 19 19 18 19 18 17 17 16 16 13 13 14 14 14 14 13 13 11 11 11 11 13 14 13 14 14 16 15 15 15 14 14 14 14 15
21 21 22 22 20 19 23 21 21 21 19 18 18 18 17 16 15 14 13 13 13 14 15 14 13 12 11 11 11 11 11 11 12 14 15 15 16 16 15 15 14 15 15
24 25 24 23 20 20 23 21 22 19 18 18 17 17 16 15 15 13 13 13 13 14 14 14 13 12 12 12 11 11 12 13 14 15 15 14 14 14 15 17 18 18 20
25 24 22 23 22 22 19 19 21 21 19 17 17 16 16 16 15 15 14 15 14 14 14 15 14 12 12 12 15 14 14 14 14 14 14 14 14 15 14 15 16 18 20
24 22 22 21 22 22 20 21 20 20 19 22 22 19 20 17 16 14 15 16 18 16 19 22 21 20 15 16 16 15 15 14 14 14 14 14 13 13 15 16 16 18 16
23 22 22 22 23 22 22 22 17 16 16 15 15 15 18 14 13 14 14 14 14 14 25 25 21 20 20 16 19 20 17 15 16 16 16 16 15 15 15 16 15 15 16
26 24 24 22 23 24 24 24 24 21 16 15 15 14 15 15 14 14 14 14 14 17 26 27 25 24 23 22 21 17 21 20 20 20 19 18 17 17 16 16 16 15 17
27 25 25 25 26 26 26 26 26 27 27 26 19 16 15 15 15 14 14 16 25 24 28 27 27 26 25 25 24 24 23 22 22 22 21 21 20 19 19 19 19 18 18
26 26 26 26 26 25 27 27 26 26 25 24 26 20 20 16 15 15 15 21 23 25 26 25 24 24 24 25 25 27 27 26 25 26 26 25 24 23 24 23 22 21 21
28 25 25 27 27 25 24 24 25 24 24 23 23 22 27 28 29 28 26 26 24 22 23 23 23 24 24 24 24 25 25 27 26 26 25 25 24 24 23 25 26 25 25
26 26 24 25 25 23 22 23 22 24 22 22 21 21 17 23 22 25 24 23 21 21 22 23 23 23 24 25 25 26 26 25 25 25 25 26 27 26 27 26 25 24 26
27 26 26 24 24 24 23 22 22 22 22 22 21 21 16 18 20 21 21 21 20 21 20 22 22 22 22 23 24 25 25 25 26 26 25 25 27 27 28 27 26 28 27
28 27 26 23 22 22 22 22 22 22 22 21 21 21 22 22 21 21 21 21 21 21 21 23 21 22 23 23 24 22 23 23 23 25 24 25 26 25 26 25 27 29 29
26 24 21 21 21 21 20 20 20 21 21 21 21 21 20 21 21 21 21 21 21 21 23 21 21 22 22 24 24 23 23 22 28 26 26 25 26 26 26 29 28 29 29
24 22 21 20 20 20 20 20 20 20 19 19 20 19 19 20 20 20 19 20 20 20 21 22 21 22 23 22 23 23 22 20 22 23 26 28 27 27 26 28 28 29 29
23 22 21 20 20 21 21 21 21 21 20 20 20 20 20 20 19 19 19 19 19 19 19 20 20 21 21 21 21 22 22 20 21 22 23 25 25 25 27 24 25 27 29